User: anonymous   Login
Location: Ostrava
(49.8330°N, 18.2830°E)
Time: 19:27:26
(UTC+01:00)
Language:

Cosmos 2221 - Orbit

View from above orbital plane
View from above orbital plane
View from above satellite
View from above satellite

Ground track
Ground track

The orbit data is extracted from the following two-line orbital elements,

1 22236U 92080A   15025.45423321  .00001071  00000-0  11808-3 0  3658
2 22236 082.5105 163.8783 0017010 021.3766 338.8157 14.86526907197457
Epoch (UTC): 25 January 2015 10:54:05
Eccentricity: 0.0017010
inclination: 82.5105°
perigee height: 597 km
apogee height: 620 km
right ascension of ascending node: 163.8783°
argument of perigee: 21.3766°
revolutions per day: 14.86526907
mean anomaly at epoch: 338.8157°
orbit number at epoch: 19745

The dashed part of the orbit path shows where the satellite is in the earth's shadow,  

DLR